Powrót do katalogu

SL-14 R/B

AktywnyPO
NORAD 16263·ROCKET BODY·🇷🇺 Russia

Wystrzelony Nov 22, 1985 z Plesetsk Cosmodrome

Loading…

Następne Przeloty (najbliższe 24 godziny)

TLE

ŚwieżeSource: Space-Track

Epoka: Sep 14, 2026, 13:26 UTC

1 16263U 85108B   26257.56021510  .00000349  00000-0  37391-4 0  9995
2 16263  82.5054 183.1287 0019663  20.2988 152.3988 14.85651623183962

Śledź SL-14 R/B w czasie rzeczywistym z AllMySat

Download on the App Store